Location: T�bingen+AIT
(48.5342°N, 9.0700°E)
Time: 18:55:51
(UTC+02:00)

Daily predictions for brighter satellites

Satellite Brightness Start Highest point End
(mag) Time Altitude Azimuth Time Altitude Azimuth Time Altitude Azimuth
USA 229 DEB 4.1 19:39:41 10° NW 19:46:50 78° SW 19:54:07 10° SSE
USA 229 4.1 19:39:47 10° NW 19:46:56 78° SW 19:54:13 10° SSE
Cosmos 2150 Rocket 4.1 19:45:34 10° NNW 19:50:54 70° ENE 19:56:16 10° SSE
NOSS 3-1 (A) 4.2 19:43:55 10° NW 19:51:10 60° NE 19:59:18 10° ESE
CZ-2D R/B 4.4 19:48:17 10° ESE 19:51:22 24° ENE 19:54:28 10° NNE
FREGAT/IRIS 2.8 19:50:11 10° SSE 19:53:08 52° ENE 19:56:07 10° N
Cosmos 1709 Rocket 4.1 19:48:13 10° S 19:54:31 71° E 20:00:54 10° NNE
Cosmos 2292 Rocket 3.4 19:53:26 10° SSW 19:56:33 58° W 19:59:29 10° N
Envisat 4.1 19:52:43 10° ESE 19:56:49 25° ENE 20:00:56 10° N
Geosat 4.4 19:52:50 10° SSE 19:57:50 71° WSW 20:02:53 10° NNW
Meteor 2-5 Rocket 3.8 19:54:46 10° N 20:00:39 64° ENE 20:06:23 10° SSE
COSMO-SKYMED 1 3.2 19:56:33 10° N 20:00:52 63° WNW 20:05:08 10° SSW
NOSS 3-1 (C) 4.1 19:53:48 10° NW 20:01:12 79° NE 20:09:32 10° SE
SJ-6B 3.0 19:58:47 10° SSE 20:02:41 54° ENE 20:06:33 10° N
Cosmos 1758 Rocket 3.7 20:04:35 10° NNW 20:09:06 82° W 20:13:35 10° S
FALCON 9 R/B 3.7 20:12:36 10° S 20:14:22 13° SSE 20:16:49 10° SE
Cosmos 2298 Rocket 4.4 20:09:58 10° NNW 20:15:18 69° WSW 20:20:35 10° S
Cosmos 1937 Rocket 3.9 20:10:01 10° NNW 20:15:19 70° WSW 20:20:33 10° SSE
Cosmos 468 Rocket 4.0 20:11:45 10° SSW 20:16:58 90° ESE 20:22:17 10° NNE
Cosmos 841 Rocket 3.8 20:12:48 10° S 20:17:37 42° ESE 20:22:27 10° NE
Cosmos 1726 Rocket 3.5 20:15:02 10° S 20:19:23 85° E 20:23:45 10° N
COSMOS 2406 4.0 20:15:48 10° SSE 20:20:34 28° ESE 20:25:23 10° NE
Resurs 1-3 4.1 20:16:50 10° SE 20:20:56 40° ENE 20:25:03 10° N
Cosmos 2184 Rocket 4.2 20:15:09 10° SSE 20:21:09 49° E 20:27:14 10° NNE
Cosmos 1656 Rocket 3.7 20:16:45 10° NNW 20:22:28 87° ENE 20:28:04 10° SSE
FENGYUN 3A 4.5 20:18:50 10° S 20:24:05 55° W 20:29:22 10° NNW
FengYun 1-2 T 4.4 20:19:00 10° SSE 20:24:37 83° WSW 20:30:14 10° NNW
BREEZE-M DEB (TANK) 1.0 20:22:00 10° W 20:24:37 75° N 20:25:39 24° E
Cosmos 2369 Rocket 4.4 20:19:58 10° NW 20:24:39 27° WSW 20:29:18 10° SSW
USA 267 4.1 20:18:52 10° ENE 20:25:00 45° N 20:31:09 10° WNW
Cosmos 389 Rocket 3.3 20:25:48 10° SSW 20:29:15 54° WNW 20:32:41 10° N
H-2A R/B 3.0 20:26:24 10° S 20:30:05 67° WSW 20:33:51 10° NNW
Cosmos 304 Rocket 3.8 20:31:12 10° S 20:35:50 53° ESE 20:40:32 10° NNE
Cosmos 1763 Rocket 3.4 20:33:47 10° SSW 20:38:54 82° ESE 20:44:06 10° NNE
Resurs 01 Rocket 1.6 20:34:39 10° SSE 20:39:02 64° ENE 20:43:25 10° N
GP-B 3.5 20:38:16 10° NNE 20:42:31 41° E 20:46:21 12° SSE
Thor Agena Rocket 4.1 20:37:57 10° N 20:43:11 63° WNW 20:48:19 10° SSW
Cosmos 540 Rocket 3.9 20:38:34 10° SSE 20:43:12 36° ESE 20:47:51 10° NE
Cosmos 2084 3.3 20:39:33 10° SSW 20:43:30 55° SE 20:47:14 10° NE
Cosmos 1766 3.3 20:40:07 10° S 20:43:57 54° E 20:47:47 10° NNE
Cosmos 2327 Rocket 4.4 20:38:08 10° S 20:44:10 65° E 20:50:11 10° NNE
In-Cosmos 22 4.2 20:39:14 10° N 20:44:55 76° ENE 20:50:39 10° SSE
Cosmos 1707 4.3 20:42:09 10° NNW 20:45:49 37° W 20:49:27 10° SSW
Cosmos 1758 4.4 20:46:09 25° E 20:46:09 25° E 20:49:24 10° NE
Cosmos 2228 3.5 20:48:41 10° SSW 20:53:02 65° WNW 20:57:22 10° N
Cosmos 1939 Rocket 3.1 20:53:28 30° SE 20:54:57 46° ENE 20:58:44 10° N
Cosmos 1812 Rocket 3.8 20:52:48 10° SSE 20:57:04 48° E 21:01:23 10° NNE
Cosmos 2058 Rocket 3.9 20:54:54 10° SSW 20:59:09 52° WNW 21:03:28 10° N
BREEZE M DEB (TANK) 4.3 20:53:30 10° WNW 21:00:09 35° SW 21:02:02 19° S
SJ-11-01 4.4 20:59:25 26° SE 21:01:51 55° ENE 21:06:29 10° N
Spot 2 Rocket 3.4 20:58:13 10° SSE 21:03:17 88° WSW 21:08:22 10° NNW
Cosmos 836 Rocket 4.5 21:01:29 10° S 21:06:40 60° ESE 21:11:52 10° NNE
Cosmos 2278 4.3 21:04:25 10° NNW 21:09:45 40° NE 21:11:35 31° E
USA 186 1.7 21:10:32 51° WSW 21:10:39 52° W 21:13:01 10° NNW
Cosmos 1674 2.8 21:07:09 10° N 21:10:49 49° ENE 21:11:00 49° E
Meteor 1-24 Rocket 4.4 21:05:27 10° NNW 21:11:21 60° W 21:17:05 10° S
Okean 3 Rocket 3.9 21:07:38 10° N 21:11:58 44° ENE 21:12:38 41° E
GEOS 3 Rocket 4.1 21:07:23 10° NE 21:12:23 37° ESE 21:17:20 10° S
YAOGAN 6 2.6 21:14:51 55° E 21:14:56 56° ENE 21:18:30 10° N
Cosmos 1805 3.1 21:18:23 21° S 21:20:53 84° E 21:24:49 10° N
Cosmos 1544 3.4 21:17:25 10° SSW 21:20:59 64° W 21:24:36 10° N
Cosmos 1125 Rocket 3.8 21:17:52 10° NNW 21:23:08 66° WSW 21:26:36 21° S
MOS 1-B Rocket 4.2 21:18:28 10° S 21:24:38 68° WSW 21:30:17 10° NNW
Cosmos 2322 Rocket 4.3 21:22:33 10° N 21:24:48 12° NNE 21:26:46 10° NE
Cosmos 2154 Rocket 3.9 21:19:44 10° S 21:25:56 80° E 21:32:14 10° N
SPOT 5 4.2 21:27:40 21° NE 21:27:40 21° NE 21:30:15 10° NNE
ERS-1 Rocket 3.3 21:31:39 44° E 21:32:01 45° ENE 21:36:48 10° N
ATLAS 2AS CENTAUR R/B 3.2 21:25:28 10° NW 21:33:29 58° NE 21:36:36 37° E
Cosmos 2341 Rocket 3.9 21:29:47 17° S 21:34:33 68° E 21:40:45 10° NNE
MetOp-B 4.4 21:34:53 44° E 21:35:25 46° ENE 21:40:31 10° N
Envisat 3.7 21:31:05 13° S 21:35:33 52° W 21:40:32 10° NNW
H-2A R/B 3.1 21:38:14 28° NE 21:38:14 28° NE 21:42:04 10° N
Cosmos 1697 Rocket 3.3 21:32:36 10° NNW 21:37:55 38° NE 21:38:37 37° ENE
Cosmos 1980 Rocket 3.4 21:33:19 10° NNW 21:38:03 27° NE 21:38:42 26° ENE
Cosmos 1953 2.5 21:40:39 62° NNE 21:40:39 62° NNE 21:44:07 10° NNE
Helios 1A 2.9 21:40:48 75° ENE 21:40:48 75° ENE 21:44:54 10° N
KORONAS-FOTON 4.1 21:37:00 10° N 21:40:08 58° N 21:40:08 58° N
Helios 1B rocket 4.5 21:42:53 10° NNE 21:44:01 17° NNE 21:44:01 17° NNE
Cosmos 1656 3.7 21:43:11 10° NNW 21:48:50 60° ENE 21:49:27 57° E
Spot 1 4.2 21:51:08 65° NNE 21:51:08 65° NNE 21:54:47 10° NNW
Cosmos 1959 Rocket 4.5 22:01:03 58° E 22:01:03 58° E 22:07:03 10° NNE
SL-16 R/B 4.0 21:57:28 10° N 22:01:22 18° NE 22:01:50 18° NE
COSMOS 2406 3.9 21:58:58 10° SW 22:04:34 55° WNW 22:10:14 10° NNE
Cosmos 2285 Rocket 4.1 22:05:23 55° ENE 22:05:23 55° ENE 22:10:57 10° NNE
Cosmos 2366 rocket 4.1 22:05:05 55° ENE 22:05:05 55° ENE 22:10:48 10° NNE
Cosmos 2218 Rocket 3.9 22:05:08 62° E 22:05:08 62° E 22:11:10 10° NNE
USA 267 3.9 22:04:43 32° ENE 22:07:19 46° NNE 22:13:30 10° WNW
NOAA 11 4.2 22:08:21 64° SSW 22:09:07 75° WSW 22:14:35 10° NNW
Meteor 1-11 4.5 22:06:26 10° N 22:11:38 56° NE 22:11:38 56° NE
ARGOS 3.1 22:15:18 79° NNE 22:15:18 79° NNE 22:20:30 10° NNW
Resurs 01 Rocket 4.4 22:13:18 10° SW 22:15:57 16° W 22:18:36 10° NW
Cosmos 1076 Rocket 4.4 22:12:46 10° NNW 22:16:38 48° WNW 22:16:38 48° WNW
Cosmos 2369 3.7 22:12:52 10° NNW 22:18:32 71° WSW 22:18:45 70° SW
MetOp-A 4.1 22:21:20 77° W 22:21:20 77° W 22:26:40 10° NNW
Meteor 2-21 4.4 22:20:08 58° SSW 22:21:26 81° W 22:27:36 10° N
Cosmos 1727 Rocket 3.9 22:23:26 10° N 22:29:40 84° NE 22:29:40 84° NE
SL-8 Rocket 4.1 22:33:13 62° SW 22:34:06 72° W 22:40:18 10° N
Terra 3.6 22:44:55 25° N 22:44:55 25° N 22:47:04 10° N
SPOT 1/Viking Rocket 4.3 22:44:52 47° NNW 22:44:52 47° NNW 22:48:30 10° NNW
Cosmos 1818 4.3 22:42:20 10° NW 22:46:24 48° NNW 22:46:24 48° NNW
GEOS 3 Rocket 4.3 22:45:18 10° NE 22:50:33 55° NW 22:55:48 10° WSW
BREEZE-M DEB (TANK) 3.7 22:38:29 10° WNW 22:51:13 74° W 22:51:13 74° W
Cosmos 2082 Rocket 4.2 22:58:09 18° NNE 22:58:09 18° NNE 22:59:31 10° NNE
Cosmos 2322 Rocket 3.6 23:05:07 10° NNW 23:08:34 32° N 23:08:34 32° N
H-2A R/B 3.6 23:18:52 30° NW 23:18:52 30° NW 23:21:49 10° NNW
Cosmos 2360 Rocket 4.0 23:16:00 10° N 23:19:07 23° NNE 23:19:07 23° NNE
Cosmos 1697 Rocket 4.1 23:16:38 10° NW 23:20:21 34° WNW 23:20:21 34° WNW
Cosmos 1980 Rocket 3.4 23:16:56 10° NNW 23:20:28 39° NW 23:20:28 39° NW
ATLAS 2AS CENTAUR R/B 3.5 23:16:54 10° NW 23:24:02 47° WSW 23:24:02 47° WSW
NOSS 3-4 (A) 4.2 23:29:42 10° NW 23:35:04 56° NNW 23:35:04 56° NNW
NOSS 3-4 (C) 4.2 23:29:48 10° NW 23:35:10 56° NNW 23:35:10 56° NNW
SL-16 R/B 3.8 23:40:48 10° NNW 23:43:41 31° NNW 23:43:41 31° NNW
USA 267 4.0 23:52:04 47° NW 23:52:04 47° NW 23:56:32 10° NW
